This is the latest recevied weather packets stored in our database for station/object W0PE-1. If no packets are shown the sender has not sent any weather packets the latest 10 day(s).
| Time | Temp. | Humidity | Pressure | Rain* | Wind** | Luminosity | Snow |
|---|---|---|---|---|---|---|---|
| 1777765547 | 22.78° C | 65% | 1009.6 hPa | 0 mm | - | - | - |
| 1777764646 | 23.33° C | 64% | 1009.6 hPa | 0 mm | - | - | - |
| 1777763761 | 23.33° C | 63% | 1009.6 hPa | 0 mm | - | - | - |
| 1777762842 | 23.33° C | 64% | 1009.8 hPa | 0 mm | - | - | - |
| 1777761940 | 22.78° C | 63% | 1010.2 hPa | 0 mm | - | - | - |
| 1777761036 | 23.89° C | 63% | 1010.5 hPa | 0 mm | - | - | - |
| 1777760136 | 23.89° C | 62% | 1010.8 hPa | 0 mm | - | - | - |
| 1777759232 | 23.89° C | 61% | 1011 hPa | 0 mm | - | - | - |
| 1777758331 | 23.89° C | 62% | 1011.2 hPa | 0 mm | - | - | - |
| 1777757429 | 23.89° C | 63% | 1011.5 hPa | 0 mm | - | - | - |
| 1777756526 | 23.89° C | 65% | 1011.5 hPa | 0 mm | - | - | - |
| 1777755624 | 23.33° C | 64% | 1011.6 hPa | 0 mm | - | - | - |
| 1777754724 | 22.78° C | 66% | 1011.8 hPa | 0 mm | - | - | - |
| 1777753818 | 22.78° C | 66% | 1012.1 hPa | 0 mm | - | - | - |
| 1777752918 | 22.78° C | 67% | 1012.2 hPa | 0 mm | - | - | - |
| 1777752014 | 22.22° C | 70% | 1012.2 hPa | 0 mm | - | - | - |
| 1777751114 | 21.67° C | 69% | 1012.6 hPa | 0 mm | - | - | - |
| 1777750214 | 22.22° C | 69% | 1012.9 hPa | 0 mm | - | - | - |
| 1777749310 | 22.22° C | 71% | 1013.1 hPa | 0 mm | - | - | - |
| 1777748408 | 21.67° C | 73% | 1013.1 hPa | 0 mm | - | - | - |
| 1777747508 | 20.56° C | 74% | 1013.1 hPa | 0 mm | - | - | - |
| 1777746603 | 20° C | 77% | 1013.3 hPa | 0 mm | - | - | - |
| 1777745760 | 20° C | 79% | 1013.6 hPa | 0 mm | - | - | - |
| 1777744857 | 19.44° C | 83% | 1013.7 hPa | 0 mm | - | - | - |
| 1777743952 | 18.33° C | 84% | 1014 hPa | 0 mm | - | - | - |
* Rain latest hour (hover to see other rain measurements)
** Current wind speed in m/s (hover to see current wind gust speed)